Regional Weather Roundup
Issued by NWS

Home | Current Version | Previous Version | Text Only | Print | Product List | Glossary Off
Versions: 1 2 3 4 5 6 7 8 9 10 11 12 13 14 15 16 17 18 19 20 21 22 23 24 25 26 27 28 29 30 31 32 33 34 35 36 37 38 39 40 41 42 43 44 45 46 47 48 49 50

000
ASUS43 KMPX 150101
RWRMN
WEATHER ROUNDUP FOR MINNESOTA
NATIONAL WEATHER SERVICE TWIN CITIES/CHANHASSEN MN
700 PM CST THU DEC 14 2017


NOTE: "FAIR" INDICATES FEW OR NO CLOUDS BELOW 12,000 FEET WITH NO
SIGNIFICANT WEATHER AND/OR OBSTRUCTIONS TO VISIBILITY. N/A MEANS
CURRENT SKY AND/OR WEATHER CONDITIONS ARE NOT AVAILABLE.

MNZ060>063-068>070-150200-
   Twin Cities Metro

CITY           SKY/WX    TMP DP  RH WIND       PRES   REMARKS
TWIN CITIES    CLOUDY    23  17  78 NW12      30.03S WCI  12
ST PAUL        CLOUDY    22  16  78 NW6       30.04S WCI  14
CRYSTAL        CLOUDY    22  14  71 W5        30.01F WCI  16
BLAINE         CLOUDY    23  18  80 W7        30.01S WCI  15
LAKEVILLE      CLOUDY    21  18  86 NW8       30.02F WCI  12
EDEN PRAIRIE   CLOUDY    24  16  71 W8        30.01F WCI  15
SOUTH ST PAUL  CLOUDY    24  16  74 W5        30.02F WCI  18
LAKE ELMO      CLOUDY    23  18  80 NW6       30.02S WCI  16
$$
MNZ001>005-007-008-013>017-022>024-027-028-150200-
   Northwest Minnesota

CITY           SKY/WX    TMP DP  RH WIND       PRES   REMARKS
BEMIDJI        FLURRIES  13   9  83 NW12      29.97F WCI  -1
HALLOCK        FLURRIES  18  16  93 W5        30.02S WCI  11
ROSEAU         CLOUDY    16  10  79 NW23      29.98F WCI  -2
WARROAD        LGT SNOW  12   9  85 W6        29.98F WCI   3
CROOKSTON      LGT SNOW  18  16  93 CALM      30.04F
FOSSTON        LGT SNOW  12  10  92 W5        30.01F WCI   4
DETROIT LAKES  FLURRIES  19  18  93 NW7       30.02S WCI  10
MOORHEAD       LGT RAIN  21  18  86 CALM      30.05F
PARK RAPIDS    CLOUDY    17  12  80 NW14      29.97S WCI   3
MAHNOMEN       FLURRIES  15  12  86 N5        30.01F WCI   8
$$
MNZ006-009>011-018-025>026-150200-
   North Central Minnesota

CITY           SKY/WX    TMP DP  RH WIND       PRES   REMARKS
BAUDETTE       FLURRIES  12   8  84 NW10      29.95F WCI  -1
FLAG ISLAND    FLURRIES  10   7  85 NW18      29.96S WCI  -8
INTL FALLS     LGT SNOW  12   7  80 W7        29.93S WCI   1
WASKISH        FLURRIES  12   9  85 W9        29.97S WCI   0
BIG FORK       LGT SNOW  12   9  85 W5        29.94S WCI   4
LONGVILLE      FLURRIES  16  10  79 NW10G16   29.97F WCI   3
GRAND RAPIDS   FLURRIES  14   9  80 NW10      29.96S WCI   1
CRANE LAKE     LGT SNOW  10   7  85 NW3       29.94S
ORR            FLURRIES  10   7  85 W9        29.89F WCI  -2
COOK           LGT SNOW  12   7  79 W8        29.92S WCI   1
WALKER         FLURRIES  14  10  83 W8G16     29.97S WCI   3
$$
MNZ012-019>021-037-150200-
   Northeast Minnesota

CITY           SKY/WX    TMP DP  RH WIND       PRES   REMARKS
DULUTH         FLURRIES  15   9  76 NW13      29.90F WCI   1
ELY            LGT SNOW  12   7  79 W8        29.89S WCI   1
HIBBING        FLURRIES  12   6  77 NW12      29.92F WCI  -2
EVELETH        FLURRIES  12   5  71 NW10      29.92F WCI  -1
DULUTH HARBOR  FLURRIES  19  16  86 W10       29.97S WCI   8
TWO HARBORS    CLOUDY    19  12  73 W3        29.89F
SILVER BAY     CLOUDY    16  10  79 CALM      29.88F
GRAND MARAIS     N/A     19  13  77 W6        29.91F WCI  11
G MARAIS ARPRT LGT SNOW  12   7  79 W3        29.82F
$$
MNZ029>031-032-039>041-046>048-054>057-064-150200-
   West Central Minnesota

CITY           SKY/WX    TMP DP  RH WIND       PRES   REMARKS
FERGUS FALLS   LGT SNOW  21  19  93 NW7       30.07S WCI  13
WHEATON        FLURRIES  25  19  80 W3        30.08F
MORRIS         FLURRIES  25  19  80 NW6       30.04F WCI  18
ALEXANDRIA     CLOUDY    21  16  81 NW13      30.02F WCI   9
ELBOW LAKE     CLOUDY    22  20  93 NW5       30.04F WCI  15
WADENA         FLURRIES  18  12  79 NW6       30.00S WCI   9
GLENWOOD       CLEAR     19  18  93 NW9       30.02F WCI   9
APPLETON       CLOUDY    27  19  74 NW8       30.07F WCI  18
BENSON         MOCLDY    23  19  86 N7        30.07F WCI  15
ORTONVILLE     CLOUDY    27  21  80 W5        30.06F WCI  21
MADISON        CLOUDY    28  25  86 NW7       30.08F WCI  21
WILLMAR        CLOUDY    25  21  86 NW10      30.05F WCI  15
$$
MNZ033>034-036-042>043-049>051-058-059-150200-
   Central Minnesota

CITY           SKY/WX    TMP DP  RH WIND       PRES   REMARKS
ST CLOUD       CLOUDY    22  16  78 NW15G24   30.01S WCI   9
SAUK CENTRE    CLOUDY    21  15  78 NW13G20   30.02S WCI   8
PAYNESVILLE    CLOUDY    23  20  89 NW14      30.03F WCI  11
AITKIN         FLURRIES  18  10  73 W7        29.95S WCI   8
PINE RIVER     FLURRIES  16  10  79 NW6       30.01S WCI   7
BRAINERD       CLOUDY    19  12  74 NW9G18    29.98F WCI   8
STAPLES        CLOUDY    18  12  79 NW12      29.99F WCI   5
LONG PRAIRIE   CLOUDY    21  16  79 W13G22    30.01F WCI   9
LITTLE FALLS   FLURRIES  21  10  63 NW7       30.01S WCI  13
LITCHFIELD     CLOUDY    25  19  80 NW10G16   30.03F WCI  15
BUFFALO        CLOUDY    23  16  74 W9G22     30.04R WCI  13
MAPLE LAKE     CLOUDY    24  18  80 NW8       30.03S WCI  15
HUTCHINSON     CLOUDY    25  19  80 W15       30.05S WCI  12
$$
MNZ037-044-045-052-053-150200-
   East Central Minnesota

CITY           SKY/WX    TMP DP  RH WIND       PRES   REMARKS
PRINCETON      CLOUDY    23  16  74 W13       30.00S WCI  11
MORA           MOCLDY    19  14  79 W3        30.00S
CAMBRIDGE      CLOUDY    21  14  73 W6        30.00F HAZE    WCI  14
RUSH CITY      FLURRIES  20  15  82 CALM      30.00S
MOOSE LAKE     CLOUDY    19  12  73 NW8       29.94F WCI   9
HINCKLEY       CLOUDY    21  18  86 SW6       29.98S WCI  14
CLOQUET        FLURRIES  16   9  73 W12       29.92F WCI   3
MCGREGOR       CLOUDY    19  14  79 W3        29.96S
$$
MNZ071>073-080-081-089-090-097-098-150200-
   Southwest Minnesota

CITY           SKY/WX    TMP DP  RH WIND       PRES   REMARKS
MONTEVIDEO     CLOUDY    27  21  80 N9        30.08S WCI  17
GRANITE FALLS  CLOUDY    28  22  79 W10       30.09F WCI  18
CANBY          MOCLDY    28  25  89 NW9       30.10F WCI  19
MARSHALL       CLOUDY    26  22  84 NW10      30.09S WCI  16
REDWOOD FALLS  CLOUDY    26  19  74 NW12G21   30.07R WCI  16
OLIVIA         CLOUDY    27  21  80 NW12      30.05F WCI  16
PIPESTONE      MOCLDY    25  23  93 N8        30.07R WCI  16
WINDOM           N/A     27  14  59 NW13      30.06R WCI  16
WORTHINGTON    CLOUDY    26  24  92 NW6       30.06F WCI  19
JACKSON        CLOUDY    27  23  86 MISG      30.06R FOG
SLAYTON        CLOUDY    25  24  94 NW8       30.07R WCI  17
$$
MNZ065>067-074>077-082>085-091>093-150200-
   South Central Minnesota

CITY           SKY/WX    TMP DP  RH WIND       PRES   REMARKS
MANKATO        CLOUDY    25  19  78 NW15      30.05S WCI  13
NEW ULM        CLOUDY    25  18  74 NW25      30.06R WCI   9
ST JAMES       MOCLDY    25  21  86 W12       30.07S WCI  14
FAIRMONT       CLOUDY    26  21  81 NW12      30.06S WCI  16
GLENCOE        CLOUDY    26  20  77 NW14      30.03S WCI  14
FARIBAULT      CLOUDY    23  18  80 W6        30.03S WCI  16
OWATONNA       CLOUDY    23  18  80 W9        30.02S WCI  13
WASECA         CLOUDY    23  19  86 W8        30.04F WCI  14
ALBERT LEA     CLOUDY    25  19  80 NW7       30.03R WCI  17
$$
MNZ078>079-086>088-094>096-150200-
   Southeast Minnesota

CITY           SKY/WX    TMP DP  RH WIND       PRES   REMARKS
ROCHESTER      CLOUDY    21  19  92 W14       30.00R WCI   8
RED WING       FLURRIES  23  16  74 NW8       30.02S WCI  14
STANTON        FLURRIES  24  18  77 NW8       30.02S WCI  15
DODGE CENTER   CLOUDY    21  18  86 W12       30.01S WCI   9
WINONA         CLOUDY    27  19  74 NW5       30.02F WCI  21
AUSTIN         CLOUDY    23  19  86 NW10      30.02R WCI  12
PRESTON        CLOUDY    22  18  84 W13       30.01R WCI  10
$$
ABBREVIATIONS USED IN REMARKS
   TC - TEMPERATURES IN CELSIUS
  WCI - WIND CHILL INDEX
   HX - HEAT INDEX
  VSB - VISIBILITY
$$




USA.gov is the U.S. government's official web portal to all federal, state and local government web resources and services.